www.pogodaiklimat.ru

Погода и климат >> Архив погоды >> Австралия >> Новый Южный Уэльс >> Тибообера


ПОГОДА в Тибообере

  • Прогноз погоды в Тибообере
  • Монитор погоды в Тибообере

АРХИВ ПОГОДЫ в Тибообере

Время (UTC), дата Ветер
(напр.,м/с)
 
Видим.   Явления Облачность Т
(С)
Тd
(С)
f
(%)
Тe
(С)
Тes
(С)
Комфортность P
(гПа)
Po
(гПа)
Тmin
(С)
Tmax
(С)
R
(мм)
R24
(мм)
S
(см)
04 10.07 СЗ 8 н/о н/о +20.3 +4.4 35 +20 +20 1017.9 996.7
05 10.07 СЗ 8 н/о н/о +20.9 +4.0 33 +21 +21 комфорт 1017.2 996.0
06 10.07 СЗ 8 н/о н/о +21.1 +2.4 29 +21 +21 комфорт 1017.1 995.9
07 10.07 СЗ 7 н/о н/о +20.7 +2.0 29 +21 +21 комфорт 1016.8 995.6
08 10.07 СЗ 6 н/о н/о +19.1 +1.1 30 +19 +19 1017.2 996.0
09 10.07 СЗ 5 н/о н/о +17.4 +0.6 32 +17 +17 1017.6 996.4
10 10.07 СЗ 6 н/о н/о +16.5 +0.6 34 +16 +16 1017.9 996.7
11 10.07 СЗ 6 н/о н/о +15.6 +0.6 36 +14 +14 1017.8 996.6
12 10.07 СЗ 7 н/о н/о +14.9 0.0 36 +13 +13 1018.1 996.9
13 10.07 СЗ 7 н/о н/о +14.8 -0.5 35 +13 +13 1018.1 996.9
14 10.07 СЗ 7 н/о н/о +14.3 -0.5 36 +13 +13 1017.6 996.4 +21.6
15 10.07 СЗ 6 н/о н/о +13.7 -0.3 38 +12 +12 1017.6 996.4
16 10.07 СЗ 7 н/о н/о +13.8 -0.3 38 +12 +12 1017.1 995.9
17 10.07 СЗ 8 н/о н/о +14.1 -0.4 37 +12 +12 1017.2 996.0
18 10.07 З 7 н/о н/о +12.8 -0.4 40 +10 +10 1017.4 996.2
19 10.07 З 7 н/о н/о +12.2 -0.3 42 +10 +10 1017.7 996.5
20 10.07 З 6 н/о н/о +11.2 -0.6 44 +9 +9 1018.5 997.3
21 10.07 З 7 н/о н/о +10.9 -0.2 46 +8 +8 1019.5 998.2
22 10.07 З 6 н/о н/о +10.8 -0.3 46 +8 +8 1020.5 999.2
23 10.07 З 5 н/о н/о +13.2 +1.2 44 +11 +11 1021.0 999.7
00 11.07 ЮЗ 6 н/о н/о +15.8 +4.5 47 +15 +15 1021.7 1000.4
01 11.07 ЮЗ 7 н/о н/о +17.5 +7.3 51 +17 +17 1021.8 1000.5
02 11.07 З 8 н/о н/о +18.1 +7.2 49 +17 +17 1021.8 1000.5 +10.3
03 11.07 З 6 н/о н/о +19.0 +7.4 47 +19 +19 1021.1 999.8
04 11.07 З 6 н/о н/о +19.3 +6.8 44 +19 +19 1020.2 998.9
05 11.07 З 7 н/о н/о +19.9 +6.3 41 +20 +20 1020.5 999.2
06 11.07 З 5 н/о н/о +20.2 +6.2 40 +21 +21 комфорт 1020.3 999.0
07 11.07 З 5 н/о н/о +19.5 +5.9 41 +20 +20 1020.8 999.5
08 11.07 З 4 н/о н/о +17.8 +6.3 47 +18 +18 1021.1 999.8
09 11.07 З 3 н/о н/о +15.6 +5.8 52 +15 +15 1021.5 1000.2
10 11.07 СЗ 4 н/о н/о +14.8 +5.9 55 +14 +14 1021.8 1000.5
11 11.07 З 5 н/о н/о +13.9 +5.8 58 +12 +12 1022.2 1000.9
12 11.07 З 5 н/о н/о +13.3 +6.4 63 +12 +12 1022.1 1000.8
13 11.07 З 5 н/о н/о +13.7 +7.0 64 +12 +12 1022.4 1001.1
14 11.07 З 6 н/о н/о +13.0 +7.0 67 +11 +11 1021.9 1000.6 +20.5
15 11.07 З 5 н/о н/о +12.4 +7.1 70 +10 +10 1021.4 1000.1
16 11.07 З 5 н/о н/о +11.3 +7.0 75 +9 +9 1021.2 999.9
17 11.07 З 6 н/о н/о +10.9 +7.4 79 +8 +8 1021.3 1000.0
18 11.07 З 4 н/о н/о +9.5 +6.9 84 +7 +7 1021.0 999.7
19 11.07 З 5 н/о н/о +10.2 +7.6 84 +7 +7 1021.4 1000.1
20 11.07 З 5 н/о н/о +9.9 +8.2 89 +7 +7 1021.5 1000.2
21 11.07 З 6 н/о н/о +10.5 +8.8 89 +7 +7 1022.0 1000.7
22 11.07 З 6 н/о н/о +10.9 +8.7 86 +8 +8 1022.5 1001.2
23 11.07 З 6 н/о н/о +12.8 +8.7 76 +10 +10 1022.8 1001.5
00 12.07 З 6 н/о н/о +14.6 +8.5 67 +13 +13 1022.8 1001.5
01 12.07 З 7 н/о н/о +16.6 +8.3 58 +15 +15 1022.4 1001.1
02 12.07 З 7 н/о н/о +17.8 +7.0 49 +17 +17 1021.9 1000.6 +9.4
03 12.07 З 8 н/о н/о +18.6 +6.1 44 +18 +18 1020.7 999.4
04 12.07 З 8 н/о н/о +19.5 +5.9 41 +19 +19 1019.8 998.5
05 12.07 З 9 н/о н/о +19.2 +5.3 40 +19 +19 1018.9 997.7
06 12.07 З 10 н/о н/о +19.0 +5.1 40 +18 +18 1018.7 997.5
07 12.07 З 9 н/о н/о +18.3 +5.2 42 +17 +17 1018.7 997.5
08 12.07 З 8 н/о н/о +17.3 +5.9 47 +16 +16 1018.7 997.5
09 12.07 З 7 н/о н/о +16.4 +5.1 47 +15 +15 1019.4 998.1
10 12.07 З 7 н/о н/о +15.5 +5.4 51 +14 +14 1019.9 998.6
11 12.07 З 6 н/о н/о +14.4 +5.0 53 +13 +13 1020.4 999.1
12 12.07 З 7 н/о н/о +14.1 +4.4 52 +12 +12 1020.5 999.2
13 12.07 З 7 н/о н/о +14.2 +3.9 50 +12 +12 1020.4 999.1
14 12.07 З 5 н/о н/о +12.4 +3.6 55 +10 +10 1020.7 999.4 +20.2
15 12.07 З 6 н/о н/о +12.2 +3.9 57 +10 +10 1020.4 999.1
16 12.07 З 7 н/о н/о +11.9 +4.4 60 +9 +9 1020.5 999.2
17 12.07 З 8 н/о н/о +11.6 +4.8 63 +8 +8 1020.2 998.9
18 12.07 З 7 н/о н/о +12.0 +5.2 63 +9 +9 1020.7 999.4
19 12.07 ЮЗ 6 н/о н/о +12.5 +5.9 64 +10 +10 1021.3 1000.0
20 12.07 ЮЗ 9 н/о н/о +12.3 +5.7 64 +9 +9 1022.5 1001.2
21 12.07 ЮЗ 6 н/о н/о +11.2 +5.5 68 +8 +8 1023.5 1002.2
22 12.07 ЮЗ 6 н/о н/о +10.4 +6.0 74 +7 +7 1025.1 1003.7
23 12.07 ЮЗ 7 н/о н/о +11.2 +5.9 70 +8 +8 1026.1 1004.7
00 13.07 ЮЗ 8 н/о н/о +12.4 +2.6 51 +10 +10 1027.1 1005.7
01 13.07 Ю 9 н/о н/о +13.2 +1.2 44 +10 +10 1027.6 1006.2
02 13.07 Ю 9 н/о н/о +13.3 +1.0 43 +11 +11 1027.6 1006.2 +10.3
03 13.07 Ю 7 н/о н/о +13.9 -0.2 38 +12 +12 1026.9 1005.5
04 13.07 Ю 8 н/о н/о +14.4 -1.2 34 +12 +12 1026.0 1004.6
05 13.07 Ю 7 н/о н/о +14.4 -1.2 34 +13 +13 1026.0 1004.6
06 13.07 Ю 7 н/о н/о +14.5 -1.6 33 +13 +13 1026.2 1004.8
07 13.07 Ю 8 н/о н/о +14.1 -1.9 33 +12 +12 1026.8 1005.4
08 13.07 Ю 7 н/о н/о +12.9 -2.2 35 +11 +11 1027.3 1005.9
09 13.07 ЮЗ 4 н/о н/о +11.5 -1.6 40 +10 +10 1028.0 1006.6
10 13.07 ЮЗ 4 н/о н/о +10.5 -1.2 44 +9 +9 1028.9 1007.4
11 13.07 ЮЗ 4 н/о н/о +9.1 -1.6 47 +7 +7 1029.3 1007.8
12 13.07 ЮЗ 4 н/о н/о +9.1 -1.0 49 +7 +7 1029.7 1008.2
13 13.07 Ю 4 н/о н/о +8.2 -1.3 51 +6 +6 1029.9 1008.4
14 13.07 ЮЗ 3 н/о н/о +7.5 -1.4 53 +5 +5 1030.1 1008.6 +15.5
15 13.07 Ю 3 н/о н/о +6.7 -1.7 55 +4 +4 1029.9 1008.4
17 13.07 Ю 3 н/о н/о +5.8 -1.3 60 +3 +3 1029.6 1008.1
18 13.07 ЮЗ 3 н/о н/о +5.0 -1.0 65 +2 +2 1029.8 1008.3
19 13.07 ЮЗ 3 н/о н/о +4.9 -0.3 69 +2 +2 1030.0 1008.5
20 13.07 З 3 н/о н/о +3.6 -1.2 71 0 0 1030.4 1008.9
21 13.07 З 4 н/о н/о +3.3 -1.4 71 -1 -1 1030.9 1009.4
22 13.07 ЮЗ 3 н/о н/о +4.1 -0.7 71 +1 +1 1031.6 1010.1
23 13.07 ЮЗ 3 н/о н/о +6.9 +0.8 65 +4 +4 1032.4 1010.9
00 14.07 Ю 4 н/о н/о +10.3 +3.3 62 +8 +8 1032.8 1011.3
01 14.07 ЮВ 5 н/о н/о +11.7 +2.7 54 +10 +10 1032.6 1011.1
02 14.07 ЮВ 4 н/о н/о +12.5 +1.2 46 +11 +11 1031.9 1010.4 +3.2
03 14.07 Ю 5 н/о н/о +14.0 +1.0 41 +13 +13 1030.7 1009.2
04 14.07 Ю 5 н/о н/о +14.5 +1.4 41 +13 +13 1029.5 1008.0
05 14.07 ЮЗ 6 н/о н/о +14.8 +0.3 37 +13 +13 1028.8 1007.3
06 14.07 ЮЗ 5 н/о н/о +15.0 +0.8 38 +14 +14 1028.4 1007.0
07 14.07 ЮЗ 6 н/о н/о +14.7 +0.2 37 +13 +13 1028.3 1006.9
08 14.07 ЮЗ 4 н/о н/о +13.2 +0.3 41 +12 +12 1028.4 1007.0
09 14.07 ЮЗ 4 н/о н/о +11.1 -0.1 46 +9 +9 1029.0 1007.5
10 14.07 ЮЗ 3 н/о н/о +9.7 -0.2 50 +8 +8 1029.7 1008.2
11 14.07 ЮЗ 4 н/о н/о +8.7 -0.1 54 +6 +6 1029.6 1008.1
12 14.07 З 4 н/о н/о +8.4 +0.4 57 +6 +6 1029.6 1008.1
13 14.07 З 5 н/о н/о +8.4 +1.1 60 +5 +5 1029.5 1008.0
14 14.07 З 5 н/о н/о +8.1 +0.8 60 +5 +5 1028.8 1007.3 +15.5
15 14.07 ЮЗ 5 н/о н/о +7.4 +1.3 65 +4 +4 1028.3 1006.9
16 14.07 ЮЗ 4 н/о н/о +6.8 +1.9 71 +3 +3 1028.4 1007.0
17 14.07 ЮЗ 5 н/о н/о +6.9 +3.5 79 +3 +3 1027.7 1006.3
18 14.07 ЮЗ 6 н/о н/о +6.6 +3.6 81 +2 +2 1026.9 1005.5
19 14.07 ЮЗ 7 н/о н/о +7.9 +4.7 80 +4 +4 1027.1 1005.7
20 14.07 ЮЗ 3 н/о н/о +7.2 +4.2 81 +5 +5 1027.5 1006.1
21 14.07 З 3 н/о н/о +5.7 +3.7 87 +2 +2 1027.7 1006.3
22 14.07 З 4 н/о н/о +6.0 +4.2 88 +2 +2 1028.9 1007.4
23 14.07 ЮЗ 5 н/о н/о +9.2 +4.8 74 +6 +6 1029.4 1007.9
00 15.07 ЮЗ 6 н/о н/о +10.9 +5.0 67 +8 +8 1029.8 1008.3
01 15.07 Ю 6 н/о н/о +12.4 +5.3 62 +10 +10 1029.5 1008.0
02 15.07 Ю 6 н/о н/о +13.4 +5.6 59 +11 +11 1029.0 1007.5 +5.5
03 15.07 Ю 5 н/о н/о +13.9 +5.0 55 +12 +12 1028.2 1006.8
04 15.07 Ю 6 н/о н/о +15.0 +5.5 53 +13 +13 1027.3 1005.9
05 15.07 Ю 5 н/о н/о +15.5 +5.4 51 +14 +14 1026.8 1005.4
06 15.07 Ю 6 н/о н/о +16.2 +5.8 50 +15 +15 1026.4 1005.0
07 15.07 Ю 7 н/о н/о +15.7 +5.9 52 +14 +14 1026.4 1005.0
08 15.07 Ю 6 н/о н/о +14.5 +5.8 56 +13 +13 1026.9 1005.5
09 15.07 Ю 6 н/о н/о +13.9 +6.0 59 +12 +12 1027.5 1006.1
10 15.07 Ю 4 н/о н/о +12.8 +5.7 62 +11 +11 1028.0 1006.6
11 15.07 Ю 6 н/о н/о +13.3 +6.2 62 +11 +11 1027.9 1006.5
12 15.07 Ю 7 н/о н/о +13.0 +6.4 64 +11 +11 1027.8 1006.4
13 15.07 Ю 5 н/о н/о +12.3 +6.4 67 +10 +10 1027.6 1006.2
14 15.07 Ю 6 н/о н/о +12.3 +6.4 67 +10 +10 1027.4 1006.0 +16.8
15 15.07 ЮВ 5 н/о н/о +11.7 +6.0 68 +9 +9 1027.1 1005.7
16 15.07 ЮВ 5 н/о н/о +10.8 +6.0 72 +8 +8 1027.2 1005.8
17 15.07 Ю 3 н/о н/о +9.3 +5.5 77 +7 +7 1027.1 1005.7
18 15.07 Ю 4 н/о н/о +8.4 +5.3 81 +5 +5 1027.1 1005.7
19 15.07 Ю 4 н/о н/о +8.4 +6.0 85 +5 +5 1027.1 1005.7
20 15.07 Ю 4 н/о н/о +8.3 +6.4 88 +5 +5 1027.3 1005.9
21 15.07 Ю 3 н/о н/о +7.9 +6.8 93 +5 +5 1028.3 1006.9
22 15.07 ЮЗ 3 н/о н/о +7.6 +6.9 95 +5 +5 1029.0 1007.5
23 15.07 ЮВ 6 н/о н/о +11.3 +8.3 82 +8 +8 1029.1 1007.6
00 16.07 Ю 5 н/о н/о +11.7 +8.0 78 +9 +9 1029.6 1008.1
01 16.07 Ю 4 н/о н/о +12.4 +7.9 74 +10 +10 1029.5 1008.0
02 16.07 Ю 4 н/о н/о +14.1 +8.1 67 +13 +13 1028.5 1007.1 +7.1
03 16.07 Ю 5 н/о н/о +15.2 +8.0 62 +14 +14 1027.4 1006.0
04 16.07 Ю 5 н/о н/о +16.4 +7.9 57 +16 +16 1026.6 1005.2
05 16.07 Ю 5 н/о н/о +17.2 +7.3 52 +17 +17 1025.8 1004.4
06 16.07 Ю 6 н/о н/о +17.7 +6.6 48 +17 +17 1025.6 1004.2
07 16.07 Ю 5 н/о н/о +17.2 +7.0 51 +17 +17 1025.5 1004.1
08 16.07 Ю 4 н/о н/о +15.9 +7.1 56 +15 +15 1025.8 1004.4
09 16.07 Ю 3 н/о н/о +14.2 +6.8 61 +13 +13 1026.2 1004.8
10 16.07 ЮЗ 3 н/о н/о +12.7 +6.5 66 +12 +12 1026.7 1005.3
11 16.07 Ю 3 н/о н/о +11.7 +6.4 70 +10 +10 1026.9 1005.5
12 16.07 Ю 3 н/о н/о +10.8 +6.0 72 +9 +9 1027.3 1005.9
13 16.07 ЮЗ 4 н/о н/о +10.3 +6.3 76 +8 +8 1027.0 1005.6
14 16.07 ЮЗ 3 н/о н/о +9.8 +6.9 82 +8 +8 1026.8 1005.4 +18.0
15 16.07 ЮЗ 3 н/о н/о +9.6 +7.5 87 +8 +8 1026.3 1004.9
16 16.07 Ю 3 н/о н/о +8.5 +7.3 92 +6 +6 1026.0 1004.6
17 16.07 Ю 4 н/о н/о +8.2 +8.1 99 +5 +5 1025.4 1004.0
18 16.07 ЮВ 4 н/о н/о +8.3 +8.2 99 +5 +5 1025.1 1003.7
19 16.07 Ю 3 н/о н/о +7.4 +7.3 99 +5 +5 1025.0 1003.6
20 16.07 ЮВ 3 н/о н/о +7.2 +7.2 100 +4 +4 1025.1 1003.7
21 16.07 ЮВ 2 н/о н/о +6.6 +6.6 100 +5 +5 1025.5 1004.1
22 16.07 В 2 н/о н/о +7.6 +7.6 100 +5 +5 1026.0 1004.6
23 16.07 В 3 н/о н/о +10.1 +10.0 99 +8 +8 1026.3 1004.9
00 17.07 В 3 н/о н/о +12.1 +9.3 83 +10 +10 1026.8 1005.4
01 17.07 В 3 н/о н/о +13.7 +9.0 73 +13 +13 1026.5 1005.1
03 17.07 ЮЗ 3 н/о н/о +16.2 +8.7 61 +16 +16 1024.4 1003.0

 

Местоположение метеостанции Тибообера (Новый Южный Уэльс, Австралия): широта -29.45 долгота 142.05 высота над уровнем моря 177 м.

В архиве по умолчанию представлена погода в Тибообере за последнюю неделю. Архивные данные за месяц целиком и за предыдущие месяцы, начиная с января 2011 года, Вы можете получить, выбрав интересующий диапазон дат из раскрывающегося списка и нажав кнопку "Ввод!".


*Определитесь, кто Вы:
робот инопланетянин человек

Внимание! Время в таблицах - всемирное. Для получения местного времени необходимо прибавить поправку, которая равна 10 ч.

Смотрите также архив погоды в соседних городах и на ближайших метеорологических станциях:

Погода в Уафт Клифс (Новый Южный Уэльс, Австралия) (184 км)
Погода в Фоулерс Гэп (Новый Южный Уэльс, Австралия) (184 км)
Погода в Месторождении Ballera (Квинсленд, Австралия) (227 км)
Погода в Мумбе (Южная Австралия, Австралия) (235 км)
Погода в Таргоминде (Квинсленд, Австралия) (237 км)
Погода в Уилкании (Новый Южный Уэльс, Австралия) (263 км)
Погода в Брокен-Хилл аэропорту (Новый Южный Уэльс, Австралия) (289 км)
Погода в Ли-Крике (Южная Австралия, Австралия) (372 км)
Погода в Бурке (Новый Южный Уэльс, Австралия) (382 км)
Погода в Марри (Южная Австралия, Австралия) (387 км)

Пояснения к столбцам:

Ветер - указаны скорость ветра в м/с - средняя за 10 мин, порывы в срок и между сроками (в фигурных скобках) и направление, откуда дует ветер: С - северный, СВ - северо-восточный, В - восточный, ЮВ - юго-восточный, Ю - южный, ЮЗ - юго-западный, З - западный, СЗ - северо-западный.
Видимость - горизонтальная дальность видимости в метрах или километрах. При видимости от 1 до 10 км при отсутствии осадков обычно наблюдается дымка, при ухудшении видимости до 1 км и менее - туман. В сухую погоду видимость может ухудшаться дымом, пылью или мглою.
Явления - указаны атмосферные явления, наблюдавшиеся в срок или в последний час перед сроком; фигурными скобками обозначены явления, наблюдавшиеся между сроками (за 1-3 часа до срока); квадратными скобками обозначены град или гололедные отложения с указанием их диаметра в мм.
Облачность - указаны через наклонную черту общая и нижняя облачность в баллах и высота нижней границы облаков в метрах; квадратными скобками обозначены формы облаков: Ci - перистые, Cs - перисто-слоистые, Cc - перисто-кучевые, Ac - высококучевые, As - высокослоистые, Sc - слоисто-кучевые, Ns - слоисто-дождевые, Cu - кучевые, Cb - кучево-дождевые. Подробнее классификацию облаков см. в Атласе облаков (PDF).
T - Температура воздуха - температура, измеренная на высоте 2 м над землей.
Td - Температура точки росы - температура, при понижении до которой содержащийся в воздухе водяной пар достигнет насыщения.
f - Относительная влажность воздуха - влажноcть воздуха, измеренная на высоте 2 м над землей.
Te - Эффективная температура - температура, которую ощущает одетый по сезону человек в тени. Характеристика душности погоды. При расчете учитывается влияние влажности воздуха и скорости ветра на теплоощущения человека.
Tes - Эффективная температура на солнце - температура, которую ощущает человек, с поправкой на солнечный нагрев. Характеристика знойности погоды. Зависит от высоты солнца над горизонтом, облачности и скорости ветра. Ночью, в пасмурную погоду, а также при ветре 12 м/с и более поправка равна нулю.
P - Атмосферное давление - приведенное к уровню моря атмосферное давление.
Po - Атмосферное давление - измеренное на уровне метеостанции атмосферное давление.
Tmin - Минимальная температура - минимум температуры воздуха на высоте 2 м над землей.
Tmax - Максимальная температура - максимум температуры воздуха на высоте 2 м над землей.
R - Количество осадков - Количество выпавших осадков за период времени, мм. При наведении курсора мыши на число - период времени, за который выпало указанное количество осадков.
R24 - Количество осадков - Количество выпавших осадков за 24 часа, мм.
S - Снежный покров - Высота снежного покрова, см. При наведении курсора мыши на число - состояние снежного покрова и степень покрытия местности в баллах.